Wind_Speed
32 33 33 34 35 35 36 36 35 35 35 34 33 33 32 32 32 32 32 32 32 32 31 30 30 30 29 29 29 29 29 29 30 31 32 33 34 34 35 36 36 37 37 38 38 38 38 37 35 34 33 32 32 32 32 32 33 33 34 35 36 37 37 36 36 36 36 36 37 37 38 38 39 39 40 40 41 42 42 42 43 44 45 48 51 52
32 33 33 33 34 34 35 35 34 33 33 34 34 34 33 34 34 33 33 32 31 30 30 30 30 30 30 30 31 31 31 31 31 32 32 33 33 34 35 35 35 36 36 37 37 37 37 36 35 33 32 32 32 31 31 31 32 32 32 32 33 33 33 34 34 34 35 35 36 37 37 38 38 39 39 40 40 41 41 42 42 43 44 47 50 53
30 31 31 32 32 32 32 33 33 32 32 33 33 33 34 34 34 33 32 31 30 29 29 29 30 31 32 32 32 32 31 31 31 31 31 32 33 34 34 35 35 35 36 36 36 37 37 37 35 34 32 32 32 33 33 33 32 31 31 30 30 30 31 31 32 33 33 34 35 36 37 37 38 39 39 39 40 40 41 41 42 43 44 45 48 51
28 29 30 30 30 30 31 31 32 32 32 32 32 33 33 32 32 31 31 30 30 30 30 31 31 31 32 32 32 31 31 30 30 31 31 32 32 33 34 34 35 35 35 36 37 38 38 38 37 35 34 34 35 35 35 34 33 32 30 29 29 29 30 30 31 31 32 33 34 35 37 38 38 39 40 40 40 40 40 41 42 42 43 44 46 48
28 28 29 29 29 30 31 31 31 31 31 31 31 31 31 30 30 30 31 31 31 31 32 31 31 31 31 31 31 31 31 31 31 31 31 31 31 32 33 34 34 35 36 37 38 39 39 38 37 37 37 37 37 36 35 34 32 31 29 28 28 29 29 29 29 29 30 31 32 34 36 37 38 39 40 39 39 39 40 41 42 42 43 44 44 45
29 29 29 29 29 29 30 30 29 29 29 29 29 29 29 29 30 30 31 31 32 32 32 32 32 32 32 32 32 32 32 32 32 32 31 31 31 32 32 33 33 34 36 36 37 37 36 36 37 38 38 38 38 36 35 33 31 29 28 28 27 27 27 27 27 27 27 28 30 32 34 36 38 39 39 39 39 39 40 41 42 42 43 44 44 44
28 29 29 29 28 28 28 28 27 27 27 27 28 29 30 30 30 31 31 32 32 33 33 33 32 32 32 32 32 32 32 32 31 31 31 31 31 31 31 32 32 33 34 35 35 35 35 35 36 37 38 38 37 36 34 31 29 28 27 27 26 25 25 24 24 25 26 27 29 31 33 35 37 38 39 39 40 40 41 41 42 43 43 44 44 44
26 28 28 27 27 27 27 27 26 26 26 27 28 29 30 31 31 32 32 33 32 32 32 32 32 31 31 31 31 30 30 30 30 29 29 29 29 30 30 30 31 32 33 34 35 35 35 35 36 36 37 37 36 35 32 29 28 26 26 26 25 23 22 22 22 23 24 26 27 29 31 33 35 37 38 39 40 41 42 42 43 43 44 44 43 43
24 24 25 25 25 25 25 26 27 27 27 27 27 28 29 30 31 31 32 31 31 30 29 29 30 30 30 30 30 29 29 28 28 28 28 28 28 29 29 29 30 31 32 34 35 36 36 35 36 36 37 36 35 33 30 28 26 25 25 24 23 22 21 22 23 24 25 26 27 28 30 32 34 36 37 39 40 41 42 43 43 44 44 43 42 42
21 21 22 24 24 24 24 26 28 29 28 28 28 27 27 27 28 28 29 29 29 29 28 28 28 29 30 29 29 28 28 28 28 29 29 29 30 29 29 29 29 31 33 35 36 36 36 35 35 35 35 35 33 30 28 26 24 24 23 22 22 22 23 24 26 27 28 28 29 29 30 31 33 35 36 38 39 40 41 42 43 43 43 42 41 41
20 20 22 24 26 26 26 26 28 29 28 28 28 28 27 26 25 24 22 23 27 29 28 28 28 28 28 29 29 28 28 28 29 29 29 29 28 28 28 29 30 32 34 35 35 35 34 34 33 33 32 31 29 27 25 23 22 21 21 22 23 24 26 28 29 30 30 30 30 30 30 31 32 33 35 36 38 39 40 41 42 43 43 42 41 41
21 22 23 23 24 25 26 27 28 27 26 24 23 23 25 26 26 24 21 20 24 28 29 29 29 28 28 28 28 28 28 28 28 28 28 27 27 27 28 28 30 31 31 31 31 30 29 27 26 25 25 24 23 23 22 21 21 21 23 24 26 28 29 30 31 31 31 31 31 31 31 31 31 32 33 35 36 38 39 40 41 42 43 42 42 41
23 23 23 23 23 23 24 25 25 24 22 21 17 15 18 25 27 26 25 24 26 28 28 28 29 29 29 28 27 27 27 28 28 27 27 27 27 27 26 26 27 27 26 25 24 23 22 22 22 22 22 22 22 23 22 23 24 25 27 29 30 31 32 32 32 32 32 32 32 32 31 31 31 31 32 34 35 37 38 39 41 42 42 43 43 43
21 22 21 20 20 21 22 22 19 17 18 20 20 21 25 27 28 27 26 26 27 28 28 28 28 28 28 28 27 27 27 27 26 26 27 27 26 25 24 24 24 23 23 22 21 22 23 24 25 26 25 25 25 25 25 26 27 29 30 31 32 32 32 32 32 32 32 32 32 32 32 32 32 31 32 32 34 35 37 38 40 41 42 43 43 44
18 17 13 12 13 17 21 20 17 17 19 22 25 26 28 28 28 26 23 22 25 28 28 27 26 27 27 27 26 25 24 24 24 24 24 24 24 22 22 22 22 23 23 23 24 26 29 29 29 28 27 27 26 26 27 28 29 30 31 32 32 32 32 32 32 32 32 32 33 33 33 33 33 32 32 32 33 34 35 37 39 40 41 43 44 44
20 17 11 11 12 14 19 18 17 18 22 25 26 27 26 25 25 25 23 22 24 25 22 16 14 17 20 23 22 21 20 19 19 20 21 20 20 20 21 22 23 24 25 27 29 31 32 32 31 30 28 26 26 27 27 28 29 30 31 31 31 32 32 32 32 32 32 33 33 34 34 34 34 34 33 33 33 33 34 36 37 39 41 42 43 44
20 17 13 12 11 13 18 19 20 22 24 25 26 26 25 24 25 25 24 22 21 18 13 10 9 9 9 13 16 17 19 19 19 19 21 23 25 26 26 26 27 28 30 30 31 31 31 31 30 28 26 25 25 26 27 28 29 30 30 31 31 32 32 32 33 33 33 34 34 34 35 35 35 35 35 34 34 34 34 35 37 38 40 41 43 44
21 20 16 12 11 14 18 20 22 24 25 25 25 26 26 27 28 27 25 22 18 14 9 8 8 7 6 5 14 22 22 23 23 24 24 26 29 31 30 28 28 29 30 31 31 30 29 28 27 26 26 26 26 27 28 29 30 30 31 31 32 33 33 33 33 33 34 34 35 35 35 35 35 36 36 35 35 35 35 35 36 37 39 40 42 43
21 21 17 14 15 18 21 23 24 24 24 25 25 26 26 27 26 24 21 22 20 15 10 8 7 7 7 8 18 27 27 26 25 25 24 25 28 30 28 27 27 28 28 29 29 29 28 27 27 27 27 28 29 29 30 30 30 31 32 32 33 33 33 33 33 34 34 34 35 35 35 36 36 36 36 36 36 36 36 36 37 37 38 39 41 42
22 21 20 19 20 22 23 25 25 26 26 27 28 27 25 25 24 22 19 18 17 17 16 13 10 11 15 19 25 28 28 26 25 23 21 22 25 27 26 25 25 26 26 27 27 27 26 26 26 26 27 28 29 30 30 30 30 31 32 32 32 32 33 33 33 34 34 34 35 35 35 36 36 36 36 37 37 37 37 37 37 38 38 39 40 41
23 23 24 26 25 23 23 25 27 28 29 30 29 28 25 23 21 18 16 16 17 19 20 15 13 17 21 23 26 29 29 26 24 21 19 19 21 24 24 23 23 24 25 26 27 26 24 24 23 23 25 26 27 28 28 29 30 31 31 32 33 33 34 34 35 35 35 35 35 35 35 35 36 36 37 37 37 38 38 38 38 39 39 39 40 41
26 27 30 30 28 26 26 28 30 32 32 31 29 26 23 22 20 19 21 21 21 20 19 18 21 25 27 28 29 30 29 26 24 21 16 12 13 17 20 19 19 20 21 21 22 22 21 21 23 24 25 26 27 28 28 29 30 31 32 34 34 35 35 36 37 37 36 36 35 35 35 35 35 36 37 37 38 38 39 39 39 39 39 40 40 41
29 30 31 30 29 29 29 30 31 31 31 29 27 25 24 24 24 24 24 22 21 21 22 25 28 30 30 30 30 30 27 25 23 19 12 8 8 13 18 18 17 17 17 18 20 20 19 21 24 26 26 27 27 28 29 30 31 33 34 35 36 36 37 37 37 37 36 35 35 34 34 34 35 35 36 37 37 38 38 38 39 39 39 39 40 40
31 30 30 29 29 29 30 30 30 29 27 26 26 26 26 27 28 28 27 24 23 23 24 26 27 26 26 28 28 26 23 20 19 17 11 7 10 18 22 22 21 21 22 23 24 23 22 22 24 26 27 27 27 28 29 31 33 34 35 36 37 37 38 38 37 36 35 34 34 33 33 33 33 34 34 35 35 35 36 36 37 37 38 38 39 39
31 30 29 29 31 32 33 33 33 32 30 29 29 29 29 29 29 29 27 24 23 23 23 21 17 16 19 22 23 23 23 21 20 17 14 7 9 17 24 24 22 21 24 26 26 24 23 23 24 25 26 26 27 28 29 31 33 35 36 37 37 38 37 37 35 34 33 32 31 30 30 30 30 30 30 31 31 32 33 33 34 35 36 37 37 37
33 33 33 34 36 38 39 39 37 36 34 33 33 32 31 30 28 26 23 21 20 20 19 14 10 10 14 17 18 20 23 21 18 15 14 9 8 13 22 23 21 20 22 24 24 23 22 22 22 22 22 24 26 27 30 32 34 35 35 36 36 36 35 33 32 30 29 28 27 26 25 25 26 26 26 27 27 28 28 29 30 31 31 31 31 32
34 35 36 36 37 37 37 36 35 35 35 35 34 33 32 30 27 23 20 19 19 18 14 11 11 12 11 10 11 15 20 19 16 15 16 14 10 10 17 21 21 20 20 20 21 20 19 20 21 20 20 23 26 28 30 31 31 32 33 33 33 32 30 29 27 25 24 22 22 22 22 22 21 21 20 20 20 20 21 21 22 23 24 26 28 30
33 33 33 33 32 32 32 32 33 33 33 33 33 33 32 29 23 18 16 19 22 19 12 11 11 11 10 9 11 16 21 20 18 17 17 16 10 8 15 18 17 15 15 15 17 18 19 19 19 20 21 23 24 26 27 27 28 28 28 28 28 28 27 25 22 20 19 18 19 19 18 17 16 15 16 17 18 20 22 25 27 29 31 32 32 33
32 32 31 30 29 29 30 31 31 31 31 31 31 31 30 27 22 18 19 22 23 19 13 11 11 11 10 10 14 19 21 21 19 17 15 13 9 9 15 15 14 14 14 13 15 17 19 18 18 17 18 20 20 21 22 23 24 24 23 22 22 23 23 21 19 17 17 16 16 14 14 15 17 19 22 25 27 30 33 35 35 36 35 35 34 33
31 30 29 28 28 27 28 28 28 28 29 29 30 29 28 24 21 21 22 23 22 18 12 11 11 10 10 10 11 13 14 16 15 13 12 9 7 9 15 16 17 18 16 11 8 9 12 12 12 12 13 14 15 16 17 19 20 20 18 16 14 14 17 17 17 15 14 14 14 16 19 22 24 27 30 32 34 36 37 37 37 36 35 34 33 32
30 29 27 27 26 26 25 25 26 26 27 28 28 27 24 21 20 22 24 24 23 20 15 12 12 11 10 10 9 7 6 13 15 14 13 10 10 13 17 16 17 18 16 10 6 5 5 4 3 4 6 8 10 13 15 17 18 18 16 13 10 4 4 8 10 12 14 17 20 23 26 28 30 32 33 35 36 36 36 37 36 35 34 33 32 31
28 27 26 26 25 25 25 25 25 26 26 26 25 23 22 22 23 25 26 25 24 22 20 17 16 15 14 11 10 8 8 16 20 18 15 13 14 16 17 15 15 15 14 12 8 5 5 3 2 2 5 7 10 13 15 16 17 16 14 12 9 7 9 12 16 19 20 22 24 26 28 30 32 33 34 34 35 35 35 35 35 34 34 33 32 31
27 26 26 26 26 25 25 25 25 25 25 24 23 22 22 24 27 27 26 25 24 23 22 21 19 17 17 15 13 13 16 20 21 19 15 13 13 14 15 14 13 13 13 14 13 10 8 6 5 6 7 9 11 13 15 15 15 14 12 10 8 8 11 16 20 22 23 24 24 25 27 29 30 31 32 32 32 33 33 33 34 34 34 34 33 32
27 26 26 26 25 25 25 25 24 24 24 23 23 23 24 25 26 26 25 24 24 23 23 22 20 18 16 13 11 14 19 21 20 17 15 13 13 14 15 14 13 12 12 11 12 11 9 8 7 7 7 10 11 11 13 13 13 12 10 8 6 7 11 16 19 22 23 23 24 24 25 26 26 27 28 29 29 30 30 31 32 34 34 34 34 32
26 26 25 25 25 25 25 25 24 22 22 22 22 23 24 25 24 23 23 23 23 23 23 23 23 22 21 15 12 13 18 21 20 18 17 16 16 15 14 13 13 12 10 8 7 7 6 7 8 7 5 6 7 9 10 11 11 10 7 4 4 7 12 15 18 21 22 23 23 23 23 23 23 23 24 25 26 27 29 29 31 32 32 33 33 32
25 24 24 24 24 24 25 25 24 22 21 21 22 23 24 25 25 24 23 23 24 25 25 25 25 25 25 23 21 19 21 23 23 21 21 20 20 17 13 13 14 13 10 8 7 6 6 7 8 8 7 5 3 4 5 7 9 8 5 2 4 9 12 15 18 20 22 22 21 21 22 21 21 21 22 23 24 26 27 27 28 29 29 29 30 30
23 23 23 24 24 24 24 25 24 22 21 23 24 24 24 24 25 26 25 25 25 26 27 28 28 27 27 27 27 26 26 25 25 25 24 23 22 19 15 14 15 15 13 10 8 7 7 7 7 7 6 5 3 1 1 3 5 4 2 2 6 10 12 15 18 20 21 21 21 22 22 22 22 22 23 24 25 25 25 26 26 26 26 26 27 28
22 22 23 24 24 24 24 24 24 23 23 25 27 27 25 25 26 26 26 26 26 27 27 28 28 27 27 28 28 29 29 28 28 28 27 25 22 18 16 16 17 17 16 15 14 11 8 8 7 7 5 4 2 2 2 2 3 4 4 5 8 10 13 15 17 19 20 21 21 21 21 22 23 23 23 23 23 24 25 25 25 24 25 25 25 25
22 22 23 24 24 24 24 24 25 26 27 28 28 28 27 27 27 27 26 25 25 26 27 26 26 26 26 27 27 27 27 28 28 28 27 24 21 18 16 15 16 17 18 18 17 15 11 8 7 6 4 2 1 2 3 4 5 5 7 8 9 11 13 15 17 18 19 20 19 20 20 21 22 22 21 22 23 23 23 23 23 24 25 25 25 24
22 23 24 25 25 24 24 25 27 28 29 29 29 29 28 27 26 25 25 24 24 24 24 24 24 23 23 23 24 24 25 25 25 25 24 22 19 17 15 15 15 16 17 17 17 17 14 11 9 8 6 3 2 2 3 4 6 7 9 6 4 6 11 14 16 18 19 20 20 20 20 21 21 21 21 22 23 23 23 23 23 24 25 25 25 23
23 23 24 26 26 26 26 27 28 29 30 30 29 28 26 25 24 24 25 25 24 23 21 21 21 21 20 21 22 22 23 23 22 22 20 18 16 15 15 14 15 15 16 16 17 17 17 14 12 10 8 5 3 3 4 5 7 8 8 5 4 6 11 14 16 18 19 20 21 21 20 21 21 21 22 22 23 24 24 24 24 24 25 25 25 23
24 24 25 26 27 27 28 29 29 29 29 29 27 26 24 24 24 24 24 24 24 22 20 19 19 19 19 19 20 20 20 19 19 17 15 13 12 13 13 14 14 14 14 14 15 16 17 16 15 12 9 7 5 4 4 6 7 7 7 7 9 11 12 13 16 18 19 19 19 20 20 20 21 22 23 23 23 24 25 24 24 23 23 23 23 22
25 25 26 27 28 29 29 29 29 28 28 27 25 24 23 23 24 24 24 23 22 21 20 19 18 17 17 17 17 16 15 13 12 11 9 9 10 10 11 12 12 13 12 12 12 13 13 14 13 11 9 9 7 5 4 5 5 5 7 9 11 9 4 7 12 17 18 18 19 20 21 22 23 24 25 25 25 24 24 23 22 22 22 22 21 20
26 27 28 27 27 28 28 27 27 27 27 26 25 24 24 23 24 24 23 22 21 21 19 18 17 16 15 14 14 13 10 7 6 7 7 7 8 8 9 9 8 8 8 8 7 6 5 5 5 5 6 8 8 7 5 5 5 6 6 8 9 7 5 6 11 16 18 19 20 21 23 24 25 26 26 25 25 24 23 22 22 22 21 21 21 20
27 27 28 28 27 27 26 26 27 27 26 26 24 23 25 25 24 23 22 21 20 19 18 17 16 12 9 10 11 10 7 5 5 6 7 7 7 7 7 7 7 5 4 3 2 2 2 2 1 1 4 6 7 6 6 6 6 6 6 7 8 10 10 13 15 17 17 19 20 21 24 26 27 26 24 23 23 24 24 23 23 22 21 21 20 20
26 27 27 27 26 26 26 27 28 27 27 25 24 24 24 24 23 21 21 20 18 17 17 16 13 9 6 7 8 7 5 4 4 5 7 8 8 8 8 8 8 7 6 5 5 4 4 3 2 2 5 6 6 6 7 8 8 7 8 9 11 12 13 14 15 17 19 19 20 22 24 26 25 23 20 19 21 22 24 24 23 23 22 22 21 21
26 27 27 27 26 27 27 28 28 27 26 24 24 23 24 23 22 22 20 19 17 16 16 15 13 9 7 6 6 5 3 3 4 5 6 7 8 9 9 9 9 9 9 9 9 10 9 8 6 5 5 5 4 4 6 8 9 9 9 10 11 12 11 12 13 17 20 21 21 22 24 24 22 20 18 18 19 20 21 23 23 23 23 23 22 22
27 27 27 27 26 26 27 27 27 26 25 23 22 22 23 23 22 20 19 18 16 15 14 13 11 9 7 6 5 4 3 3 4 5 6 7 8 8 9 8 8 8 9 11 12 13 14 13 12 10 7 5 4 4 5 8 9 9 10 11 12 12 11 11 13 17 20 21 22 22 23 22 20 18 17 17 16 16 17 19 22 23 24 24 23 23
27 27 27 26 26 25 26 27 27 25 23 22 21 22 22 22 21 19 17 17 15 14 12 11 9 7 4 3 3 3 3 4 4 5 6 6 7 8 9 8 7 6 6 8 11 14 16 17 17 15 13 10 7 6 7 8 9 10 10 11 12 13 12 12 14 17 19 21 22 22 22 22 21 20 19 16 13 13 14 16 19 22 24 24 24 23
26 26 26 26 26 25 26 26 26 24 22 21 21 22 22 21 20 18 17 16 14 13 11 10 8 6 3 2 2 3 3 4 4 5 6 7 7 7 8 8 8 6 3 4 6 8 10 13 15 17 17 14 12 9 9 9 10 11 11 11 12 13 13 13 14 17 19 20 22 23 23 22 21 22 20 17 14 12 13 14 16 19 22 24 24 23
26 26 26 26 26 26 26 26 25 23 21 21 22 21 20 19 18 17 16 14 13 12 11 10 8 5 3 2 2 3 3 4 4 5 6 7 7 7 7 7 6 5 3 2 2 2 2 4 7 10 14 16 14 11 9 9 10 11 10 10 11 13 13 13 14 16 18 20 21 22 22 21 20 20 19 17 14 11 10 11 13 16 20 23 24 24
Wind_Direction
294 295 296 297 297 297 296 296 297 297 298 298 298 298 298 298 297 296 296 295 294 293 293 292 291 291 292 293 293 294 295 295 294 294 292 292 291 291 290 290 290 290 290 291 291 292 293 292 291 290 288 287 286 285 283 282 279 276 274 271 269 267 267 266 266 265 265 264 264 263 261 260 259 258 257 256 255 254 253 253 252 251 250 249 246 243
295 295 295 295 295 295 294 295 296 296 296 297 297 297 298 298 297 296 295 294 293 292 291 291 291 292 292 293 293 293 293 292 291 290 289 289 289 289 289 289 289 289 289 289 290 291 292 291 290 289 289 288 288 287 285 283 280 277 274 271 269 268 267 266 266 266 265 264 263 261 259 258 257 256 255 254 254 253 252 252 252 252 251 250 248 245
298 297 296 296 295 294 294 295 296 296 296 296 296 297 297 297 297 296 296 295 294 293 292 292 292 292 292 291 291 290 289 288 286 286 286 287 288 289 289 289 289 288 288 289 290 290 291 291 290 290 289 289 289 289 287 285 281 278 274 272 270 268 268 268 268 267 266 265 263 261 259 257 256 255 255 254 253 253 252 252 251 251 251 251 249 247
298 297 297 297 296 295 294 295 296 297 296 296 296 296 296 296 296 295 295 295 295 295 294 293 292 291 290 290 289 288 286 285 284 283 284 284 285 287 288 289 288 288 288 288 289 290 290 291 290 290 289 289 290 290 289 286 283 279 276 273 272 271 271 271 271 270 269 267 265 262 259 258 256 256 255 255 254 254 252 251 251 251 251 251 250 248
297 296 297 298 297 296 295 295 296 296 296 296 296 296 296 296 295 295 295 295 295 295 294 293 291 290 289 288 287 287 285 284 284 283 283 282 283 284 285 286 287 287 287 287 288 288 289 289 289 289 289 289 290 290 289 286 284 281 278 276 275 275 276 276 275 274 272 270 267 264 261 259 257 257 256 255 255 254 252 251 250 250 250 250 250 250
295 295 296 296 295 295 295 295 295 296 297 297 297 297 297 297 296 296 295 295 295 294 294 292 290 289 288 287 286 286 285 285 285 284 284 283 282 282 282 283 283 283 284 285 286 286 285 285 286 287 288 289 290 290 288 286 283 281 278 278 278 279 280 281 280 279 277 274 271 267 264 261 259 258 257 256 255 254 253 251 249 248 248 249 250 250
294 294 294 293 293 293 293 294 295 296 298 299 299 299 298 298 297 295 295 294 294 293 292 291 289 288 287 287 286 287 287 287 286 286 285 284 282 281 280 279 279 280 281 282 282 282 282 282 283 285 287 288 289 288 287 285 282 279 277 278 279 281 283 285 286 285 283 279 275 271 267 264 261 259 258 257 256 255 253 251 248 247 247 248 248 249
292 292 292 292 292 293 294 295 296 299 300 301 301 301 300 299 297 296 294 293 292 292 291 290 289 289 288 288 288 288 288 288 287 286 285 284 283 282 280 279 278 279 279 280 280 280 279 279 280 282 284 285 286 286 285 283 280 278 277 278 280 283 286 289 291 292 290 287 282 276 272 268 264 262 260 259 258 256 254 251 249 247 246 246 247 248
288 290 291 292 295 297 299 299 299 300 301 301 300 300 299 299 298 297 295 294 292 291 291 291 290 290 290 290 289 289 288 287 286 285 285 284 283 282 281 280 280 279 279 279 279 278 277 277 278 279 282 283 284 284 283 281 279 277 278 280 282 285 289 292 294 296 296 294 289 283 277 272 268 265 262 260 258 257 255 252 249 247 246 246 246 247
287 290 294 296 298 300 301 300 300 300 300 299 297 295 295 296 297 297 296 295 294 294 292 291 291 291 291 291 290 290 289 288 286 285 285 284 283 282 281 281 281 281 280 279 278 277 277 276 276 278 280 282 282 282 281 279 278 278 280 282 285 288 291 293 294 295 296 295 292 287 282 276 271 267 264 261 258 257 255 253 251 249 247 246 245 245
295 296 298 299 299 298 297 297 298 298 298 297 295 294 293 293 294 296 296 296 296 296 294 292 291 290 291 291 291 290 290 289 288 287 286 284 283 282 283 283 283 281 280 279 278 277 277 276 276 277 278 279 280 280 280 280 280 281 284 286 288 290 292 292 292 292 291 291 289 287 283 279 274 269 265 261 258 256 255 253 252 251 249 247 246 245
298 298 298 298 298 297 296 295 296 296 296 296 297 297 297 296 295 294 293 294 295 294 294 292 290 288 287 287 288 289 289 288 288 287 286 285 284 284 284 284 283 281 280 280 279 279 279 279 279 279 279 279 280 280 281 282 284 286 288 289 290 291 291 291 290 289 288 287 286 284 282 279 276 271 266 262 259 257 255 254 253 252 251 249 247 245
297 297 297 296 295 295 296 295 295 294 294 296 297 299 299 299 297 294 290 289 289 289 290 289 287 285 284 283 283 285 286 285 285 285 284 283 283 283 282 281 281 282 282 283 283 284 286 289 290 290 287 286 285 284 284 285 286 287 289 290 291 291 290 289 288 286 285 284 283 281 280 279 276 273 268 264 260 257 255 254 253 252 251 250 248 246
296 296 296 295 294 293 293 292 290 291 293 296 298 298 297 296 295 292 287 285 285 286 286 284 284 283 283 282 281 280 280 281 282 282 282 282 282 280 279 278 279 281 284 287 289 290 291 292 291 289 287 285 283 281 281 282 284 286 288 289 289 289 288 287 285 284 282 281 280 279 278 277 276 273 270 266 262 259 256 254 253 251 250 250 248 247
296 296 293 290 289 289 288 286 286 290 295 299 299 297 294 293 291 288 285 283 284 285 285 284 283 282 282 281 280 280 280 281 282 284 285 285 284 282 281 281 282 283 286 289 290 290 290 289 287 285 282 279 277 276 278 280 283 285 287 288 289 288 287 285 284 282 280 278 277 276 275 275 274 273 271 268 264 261 258 255 253 251 250 249 247 246
295 294 287 284 283 283 284 285 289 296 300 300 299 295 292 289 288 286 284 282 283 285 287 286 285 283 283 283 283 285 290 291 293 294 294 293 291 289 287 286 286 286 286 286 285 285 286 285 283 282 279 277 275 276 278 281 284 286 287 288 288 287 286 284 282 280 278 276 275 274 273 272 272 271 270 268 265 262 260 257 255 252 250 248 246 245
293 291 285 280 279 281 285 291 297 301 301 299 296 293 290 287 286 285 284 283 285 287 288 287 288 289 290 293 295 297 302 303 302 300 298 295 292 290 288 286 285 284 283 282 280 279 280 280 279 278 277 275 275 277 280 282 284 286 287 287 287 286 284 282 280 278 276 275 273 272 271 270 269 269 268 267 265 263 261 258 256 254 251 248 246 244
290 288 285 282 281 287 294 300 302 301 299 296 294 292 289 287 285 285 285 286 287 289 289 290 293 297 302 302 300 301 302 303 302 299 296 292 290 289 287 284 282 280 279 278 277 275 275 274 274 274 274 274 276 278 281 283 285 286 286 286 285 284 282 280 278 277 276 274 273 272 270 269 268 267 266 265 264 262 261 259 257 255 253 249 246 243
288 287 286 286 291 297 301 302 301 298 296 293 292 291 289 287 285 284 284 287 291 296 300 304 303 300 297 296 297 298 299 299 298 295 292 290 289 289 287 284 280 278 277 275 274 273 272 271 271 271 273 275 277 279 282 283 285 285 285 285 284 282 281 279 278 277 275 274 273 272 270 268 267 266 264 263 262 261 260 258 257 255 253 251 247 244
291 291 292 296 300 302 300 298 295 292 290 289 288 287 286 285 284 285 286 291 297 302 304 303 298 295 295 294 295 297 298 299 297 293 289 287 286 286 286 283 279 277 275 274 273 272 270 270 271 272 273 275 278 280 281 283 283 284 283 283 282 281 280 279 278 276 275 274 273 272 270 269 267 265 264 262 261 260 259 257 256 255 253 251 248 244
296 297 298 300 300 298 294 292 289 287 285 285 285 284 284 286 289 291 295 300 302 302 302 298 295 295 296 295 294 295 296 296 293 288 284 282 281 282 282 280 278 275 274 273 273 271 270 270 271 272 273 276 277 279 280 281 282 282 282 282 281 280 280 279 278 278 276 275 273 272 270 268 267 265 264 262 261 259 258 256 255 254 252 250 248 245
298 298 298 296 294 290 287 286 284 282 281 280 281 284 289 293 296 298 298 299 300 300 299 297 295 294 294 292 291 291 291 289 284 279 277 274 274 278 283 283 280 276 276 276 276 275 273 273 274 274 276 277 278 279 280 281 282 282 283 282 282 282 281 281 280 279 277 276 274 272 270 268 266 265 264 263 261 260 258 256 254 252 251 249 248 245
296 295 293 292 289 286 284 282 280 278 278 279 282 286 290 293 294 294 294 295 297 298 297 294 293 292 290 289 288 288 287 283 279 278 279 280 286 293 296 299 297 293 288 286 287 287 284 281 279 279 279 279 279 280 281 282 284 285 285 284 284 284 283 283 282 280 278 276 273 271 269 267 266 264 263 262 261 259 257 255 252 250 248 247 246 244
295 292 289 288 286 284 282 279 278 278 281 283 287 289 289 288 288 288 290 292 295 296 294 292 290 289 287 288 287 287 285 283 286 289 292 293 294 295 295 297 297 294 290 288 288 289 286 282 280 279 280 280 281 282 284 286 287 287 287 286 286 285 285 284 282 280 278 276 273 271 269 267 265 263 262 260 259 257 255 252 250 248 246 245 243 240
294 291 289 287 286 285 282 280 281 284 287 290 292 292 290 288 287 288 291 293 295 295 293 290 286 285 289 290 290 287 285 284 284 284 285 284 285 287 289 290 289 287 285 286 286 286 283 281 280 280 281 282 284 286 288 289 289 288 287 286 286 286 286 284 283 281 278 276 273 271 268 266 264 262 260 259 257 255 253 250 248 245 243 240 236 230
296 293 292 290 289 288 286 286 287 289 291 293 293 292 291 290 290 292 295 296 297 297 295 291 286 287 291 292 290 287 286 285 282 280 282 286 290 289 289 289 287 284 283 284 285 284 282 281 282 282 283 285 287 290 291 291 289 288 287 287 287 287 286 284 282 280 277 274 271 268 266 264 263 260 258 255 252 249 246 242 239 235 230 223 216 206
300 298 296 294 293 292 291 292 293 293 293 292 291 291 290 291 292 293 296 299 301 300 297 292 290 290 290 288 285 286 290 291 291 291 293 292 289 285 286 286 283 280 280 282 283 284 284 284 284 285 284 287 290 291 291 289 288 287 288 288 288 287 285 283 281 278 274 270 267 265 263 260 256 250 243 237 230 224 219 212 204 196 187 178 169 163
305 303 301 299 297 295 295 295 294 293 293 292 290 289 289 289 290 293 297 302 302 299 291 287 287 289 289 286 287 291 293 294 295 295 294 288 280 273 281 283 283 282 285 290 293 293 290 286 285 284 284 285 287 288 287 288 289 290 291 289 287 285 283 281 277 272 267 264 261 257 250 240 227 211 197 185 176 168 162 156 150 145 141 138 135 133
309 307 304 302 300 298 296 295 293 292 292 291 290 288 286 286 287 292 297 299 297 293 285 282 283 286 288 289 292 293 293 292 294 295 294 286 277 276 285 291 297 301 305 306 304 299 292 285 280 277 277 280 282 284 287 291 294 295 294 291 285 280 277 273 268 261 255 251 243 228 208 188 173 162 154 147 142 139 136 134 131 128 126 124 123 122
310 308 306 303 301 299 297 294 293 293 292 291 289 286 283 283 286 290 293 291 289 287 284 284 285 287 290 293 294 292 290 291 296 302 305 298 287 288 294 297 298 299 301 301 298 293 288 282 276 271 272 276 282 289 295 298 299 300 302 305 297 280 267 259 252 242 229 213 194 176 162 154 148 143 139 135 133 132 131 129 127 124 122 121 120 119
309 308 305 304 302 300 298 295 294 293 291 289 286 282 281 283 286 287 287 286 286 286 288 288 289 289 291 293 292 289 288 293 298 306 311 302 291 289 292 292 291 289 287 282 280 285 288 285 282 286 289 291 296 300 302 301 299 301 310 327 338 329 231 212 201 186 173 162 155 149 145 142 139 136 134 132 131 131 130 129 127 125 122 120 119 117
307 306 304 303 302 301 299 297 294 292 288 285 282 281 283 287 287 285 284 283 283 284 286 287 288 288 288 285 283 283 287 292 295 299 302 294 287 286 287 287 288 288 287 284 285 292 296 303 326 344 336 321 311 305 300 297 295 299 313 334 4 51 100 123 129 131 132 133 134 135 135 134 133 132 131 130 130 130 130 130 128 125 123 122 119 117
306 304 303 303 302 301 299 297 294 290 285 283 283 286 288 289 288 286 281 278 279 282 284 286 288 288 287 284 281 281 284 288 292 295 296 291 287 286 287 287 289 292 296 294 293 292 291 296 301 305 309 309 306 301 295 290 289 295 312 335 8 59 92 106 111 114 116 118 121 123 125 126 126 127 127 127 127 128 128 128 128 127 126 125 123 121
305 304 303 302 302 301 300 298 294 290 286 287 288 289 289 287 286 284 279 277 279 282 284 285 286 286 287 285 283 282 284 286 290 293 294 290 286 285 287 287 288 291 295 295 292 288 284 283 286 291 294 293 293 291 287 283 282 288 305 337 17 68 98 106 110 112 114 115 117 119 120 119 118 119 121 122 123 124 124 124 125 126 127 126 125 125
305 304 304 303 303 303 303 302 299 294 291 291 291 290 289 287 284 282 281 280 282 285 287 285 283 283 284 286 286 286 287 288 290 292 291 286 283 283 284 282 284 287 290 288 286 284 278 275 274 276 281 284 286 284 279 273 271 276 293 336 46 89 108 113 115 117 118 119 120 120 119 116 113 113 116 118 119 120 122 122 123 124 125 126 127 128
305 304 304 305 305 306 306 305 303 300 297 297 296 293 290 288 287 286 285 285 286 289 290 287 284 282 281 282 283 285 287 289 291 290 287 283 280 279 278 278 280 282 282 280 278 276 276 276 274 272 271 269 277 285 276 261 254 257 276 338 79 102 115 120 123 123 122 121 121 122 121 116 111 110 112 116 117 118 120 121 123 125 126 128 131 132
304 304 305 306 307 307 307 306 305 304 303 303 302 298 292 289 289 290 290 290 291 291 291 289 286 284 282 282 282 282 283 286 287 287 285 282 278 274 272 274 276 275 272 272 272 274 275 276 275 271 263 256 254 275 278 242 227 218 208 101 94 103 114 123 127 128 126 124 124 124 123 119 114 111 112 114 115 115 117 120 122 125 128 131 134 136
305 306 307 308 308 308 307 307 306 306 305 305 303 299 294 291 291 293 294 295 295 293 291 289 287 285 284 283 282 281 280 282 283 283 283 279 274 268 268 271 272 270 266 264 266 268 271 273 273 270 263 249 231 215 222 202 178 155 137 119 109 107 113 122 128 130 128 126 126 126 125 122 119 116 116 116 115 115 115 116 118 121 123 125 129 133
307 307 308 308 308 308 307 307 306 306 305 303 300 298 296 294 295 297 299 299 297 295 293 289 287 285 283 283 282 281 280 280 281 281 281 276 272 269 268 269 269 268 265 263 263 263 263 265 266 266 263 250 206 193 203 198 179 156 139 123 111 109 115 123 128 130 129 128 127 127 126 124 122 121 120 121 121 120 119 118 119 121 121 121 122 125
308 308 308 308 308 307 305 305 306 306 305 303 300 299 299 299 301 303 304 303 301 297 294 292 289 285 283 282 282 282 281 281 281 280 277 273 272 272 270 267 266 267 267 264 262 260 259 259 260 260 257 242 186 176 190 195 185 167 149 130 99 94 113 123 128 131 132 131 130 128 126 124 122 121 121 123 124 124 124 124 124 125 125 124 123 124
308 308 308 309 308 307 306 306 306 305 304 303 303 302 302 303 306 308 309 308 305 302 298 296 294 290 287 286 285 284 283 281 279 276 273 273 277 278 274 269 267 268 268 266 263 259 256 256 256 256 252 236 202 180 183 189 187 178 163 149 123 115 119 124 128 131 132 132 131 128 125 122 120 119 121 124 125 126 127 126 126 127 128 128 128 129
308 308 308 309 309 309 308 307 306 305 305 305 304 303 303 306 309 310 311 310 308 306 303 301 299 297 295 294 292 289 286 282 278 275 275 279 285 286 282 276 271 269 269 267 264 260 256 253 251 248 241 222 201 179 176 180 182 178 164 144 130 122 115 117 124 128 128 128 127 126 122 118 117 118 120 122 125 127 127 127 127 127 128 129 130 131
309 308 308 308 308 308 307 307 307 307 308 308 306 304 304 308 311 312 311 309 307 306 305 303 301 299 298 297 297 294 289 283 279 278 283 292 296 296 292 286 280 275 271 267 265 261 257 251 247 241 227 207 192 173 160 158 154 148 143 143 137 130 112 104 116 122 123 123 123 122 120 118 117 118 120 122 123 125 126 126 127 129 130 131 131 131
308 308 308 308 307 307 307 307 308 309 309 308 306 306 308 311 313 313 311 308 306 305 305 304 302 299 297 296 297 298 296 288 289 298 308 311 311 310 307 304 299 291 281 274 273 273 269 261 254 236 208 191 181 169 155 145 137 134 137 140 137 131 122 123 121 118 117 118 120 120 120 120 119 119 118 119 121 123 125 127 129 132 134 136 136 134
308 308 309 309 309 308 308 308 309 309 308 307 306 306 311 314 315 314 310 307 305 305 304 305 304 301 296 298 301 303 304 302 307 320 332 338 340 341 342 341 338 337 333 321 315 322 338 346 348 152 157 157 155 150 144 139 134 125 116 111 108 108 112 121 122 119 115 114 115 118 121 122 120 117 113 113 115 120 125 129 132 135 138 141 142 141
309 309 310 309 309 309 309 310 310 310 309 307 307 309 313 317 317 314 311 308 306 306 306 306 304 299 294 300 304 307 310 312 315 322 331 342 354 3 7 8 10 14 24 37 52 61 60 45 43 102 122 121 117 116 124 129 127 119 109 106 104 102 103 107 112 116 119 117 117 118 121 123 120 114 107 106 110 116 124 130 134 138 142 146 149 150
310 310 310 310 310 310 310 311 311 311 310 308 309 312 316 318 318 315 312 310 309 309 309 307 304 299 294 298 303 307 314 317 319 321 325 332 343 353 3 12 22 32 42 52 59 65 68 67 69 86 112 113 104 96 102 112 117 120 120 118 112 105 98 95 102 112 119 120 120 121 123 122 117 111 108 108 109 113 122 130 137 142 147 151 155 157
311 310 310 310 310 310 311 312 312 311 310 310 312 316 319 320 318 316 313 312 311 310 309 307 304 300 296 296 301 310 320 324 324 323 324 326 331 338 348 359 13 31 46 57 63 66 66 67 67 70 79 91 103 106 103 103 107 114 119 118 114 107 100 96 101 110 116 119 122 125 126 124 121 117 114 112 110 111 117 128 137 145 150 155 159 162
309 309 310 309 310 310 311 311 311 311 310 311 315 319 321 320 317 314 312 311 311 309 308 306 303 298 295 297 310 323 333 333 330 328 329 328 328 330 335 341 351 7 34 53 63 67 67 65 64 64 67 72 87 103 107 104 103 105 108 110 110 107 103 100 103 107 112 116 121 125 127 127 127 126 123 117 113 112 116 124 135 145 153 158 162 165
309 309 309 310 310 310 310 310 310 310 310 314 319 321 320 318 316 313 312 311 311 309 307 304 300 296 296 308 330 343 349 342 336 335 336 334 332 330 331 336 338 338 343 23 51 63 66 65 61 59 61 67 77 90 101 105 103 101 98 99 103 106 105 103 103 106 110 114 119 122 124 124 126 127 124 120 117 116 118 121 129 141 153 159 163 166
310 310 310 310 310 310 310 309 309 309 312 318 321 320 318 316 314 313 314 314 313 311 308 305 300 298 307 331 351 357 356 349 344 342 340 338 336 335 335 338 339 335 325 334 353 19 56 71 64 56 52 52 60 77 96 106 109 105 96 92 98 103 104 103 103 106 110 113 117 120 120 120 122 123 124 122 121 121 120 120 122 133 147 157 161 165
Height
653 650 649 648 646 642 638 637 637 634 630 628 626 625 623 621 620 618 617 615 614 611 609 607 605 603 601 600 599 598 597 597 596 595 594 593 591 590 589 588 587 585 584 583 582 582 581 581 580 580 580 579 578 578 577 576 576 575 575 575 575 574 574 574 574 574 574 574 574 574 575 575 575 575 576 576 577 577 578 579 580 580 581 582 583 584
653 650 648 647 645 642 637 635 635 634 630 627 625 623 621 620 618 615 614 612 611 609 607 605 603 601 599 598 596 596 595 594 594 593 591 590 589 588 586 585 584 583 582 580 580 579 578 577 577 576 576 576 575 575 574 574 573 573 572 572 572 571 571 571 571 571 571 571 571 571 571 571 572 572 572 572 573 573 574 575 576 576 577 578 579 580
653 649 647 645 644 640 636 634 632 632 630 627 625 622 620 618 616 614 611 610 608 606 605 603 601 599 597 595 594 593 592 591 590 590 589 587 586 585 584 583 581 580 579 578 577 575 575 574 573 573 573 572 572 571 571 571 570 570 570 569 569 569 569 568 568 568 568 568 568 568 568 568 568 568 569 569 569 570 570 571 572 573 574 575 575 576
653 649 645 644 641 639 636 634 631 630 628 626 623 621 620 617 614 612 610 608 605 604 602 601 599 597 595 593 591 590 589 588 587 586 585 585 583 582 581 580 579 577 576 575 574 572 571 570 570 570 569 569 569 568 568 568 567 567 566 565 565 565 565 565 565 565 564 564 564 564 564 564 565 565 565 565 566 566 567 568 569 570 570 571 572 572
652 649 645 643 640 636 634 632 630 628 626 624 622 620 617 615 613 610 608 606 604 602 600 599 597 595 593 591 589 587 586 585 584 583 582 581 580 580 578 577 576 575 573 572 570 570 569 568 567 566 565 565 565 565 564 564 564 563 562 562 561 561 561 561 561 561 561 561 561 561 560 560 561 561 561 562 562 563 563 564 565 566 567 568 569 569
650 648 645 642 639 635 632 630 629 627 625 622 620 618 616 614 611 609 607 605 602 600 598 596 595 593 591 589 586 585 583 582 581 580 579 578 577 576 575 574 573 572 570 569 568 567 566 565 564 563 562 561 561 561 561 561 560 560 559 559 558 558 558 558 558 557 557 557 557 557 557 557 557 557 557 558 559 559 560 561 562 563 564 565 565 566
648 645 644 640 637 634 632 629 627 625 623 620 618 615 614 612 610 608 605 604 601 599 596 594 592 590 588 586 584 582 581 579 578 577 576 575 574 573 572 571 570 569 568 566 565 564 563 562 561 560 559 558 558 558 558 558 557 557 556 555 555 555 555 555 555 554 554 554 554 554 554 554 554 554 554 554 555 555 556 557 558 559 560 561 562 563
645 643 641 639 635 632 630 628 626 625 623 620 617 615 612 610 608 606 604 602 600 598 595 592 590 587 585 584 582 580 579 577 576 575 574 573 571 570 569 568 567 566 565 564 562 561 560 560 559 558 557 556 555 555 555 555 554 554 553 553 552 552 552 552 551 551 551 551 550 550 550 550 550 550 550 550 551 552 552 553 554 555 556 557 558 559
644 640 638 637 635 631 628 625 624 624 623 620 618 615 612 609 606 604 602 599 598 596 594 590 587 585 583 582 580 579 577 576 574 573 571 570 569 568 566 565 564 563 562 560 559 558 557 557 556 555 554 554 553 552 552 552 551 551 550 550 550 549 549 549 549 549 548 548 547 547 547 547 547 547 547 547 547 548 549 550 550 551 552 553 554 555
643 640 637 635 633 631 628 625 622 622 622 620 618 615 613 610 605 602 599 596 595 593 592 590 586 584 581 580 579 578 576 574 572 571 570 568 566 565 564 563 562 560 559 557 556 555 554 554 553 552 552 551 550 550 549 549 548 548 548 547 547 546 546 546 546 546 545 545 545 544 544 543 543 543 543 543 544 544 545 546 547 548 549 549 550 552
641 639 637 634 632 630 629 625 622 621 620 618 615 613 611 609 606 602 598 594 592 591 589 587 585 583 580 578 577 575 574 572 570 568 567 565 564 563 562 560 559 557 555 554 553 552 551 550 550 550 549 548 547 547 546 545 545 545 545 545 544 543 543 543 543 542 542 542 542 541 540 540 540 540 540 540 540 541 541 542 543 544 545 545 546 548
640 638 635 633 630 628 626 624 621 620 618 616 613 610 607 606 605 602 598 594 591 589 587 585 584 582 580 577 575 574 572 570 567 565 564 563 562 561 560 558 556 554 552 551 550 549 548 547 547 546 546 545 544 544 543 543 543 542 542 541 541 540 540 539 539 539 539 539 539 538 538 537 537 536 537 537 537 538 538 539 539 540 541 542 543 544
639 636 634 631 629 627 625 622 619 617 615 614 611 608 605 604 602 601 598 594 591 589 586 583 581 579 578 576 574 572 570 567 565 563 562 560 559 558 557 555 553 551 550 549 547 546 545 545 544 544 543 542 542 541 541 540 540 539 539 538 537 537 536 536 536 536 536 536 535 535 535 534 534 533 533 533 534 534 535 535 536 537 537 538 539 540
636 634 632 630 627 625 623 620 618 615 613 612 610 608 605 603 601 599 596 592 589 587 585 582 578 576 574 573 572 570 568 565 563 560 559 557 556 556 555 553 551 550 549 547 545 544 543 542 542 541 540 540 539 538 538 537 537 536 535 535 534 534 533 533 532 533 533 533 532 532 531 531 530 530 530 530 530 530 531 532 532 533 534 535 536 537
634 632 630 627 625 622 620 618 616 613 611 610 609 607 605 602 600 597 594 590 587 584 582 579 576 573 571 570 569 567 565 563 560 558 556 555 555 554 553 551 549 548 547 545 543 541 540 540 539 537 536 536 535 535 535 534 533 533 532 531 531 530 530 530 530 530 530 529 529 529 528 528 527 527 527 526 527 527 527 528 529 530 530 531 532 533
633 631 628 625 622 619 617 616 614 612 610 609 608 606 603 600 597 595 592 589 585 582 580 577 574 570 568 567 566 565 564 562 560 558 556 554 553 553 552 550 548 546 545 543 541 539 537 536 535 534 533 532 532 532 531 531 530 530 529 528 528 527 527 527 526 526 526 526 526 525 525 525 524 524 523 523 523 523 524 524 525 526 527 528 529 530
631 628 625 622 619 616 615 614 613 611 610 608 606 604 602 599 595 593 590 587 584 581 578 576 573 569 565 564 564 564 563 562 559 557 555 552 551 550 550 549 546 543 541 540 539 537 535 533 532 530 530 529 529 529 529 528 527 527 526 525 525 525 524 524 524 524 523 523 523 522 522 521 521 520 520 520 520 520 520 521 521 522 523 524 525 526
628 626 623 620 617 615 613 612 611 610 609 607 605 602 599 596 594 590 588 585 583 580 577 575 572 570 567 564 562 562 563 561 559 555 553 550 547 547 547 546 544 541 539 536 535 533 532 530 529 528 527 527 526 526 526 525 525 524 524 523 522 522 522 521 521 521 520 520 519 519 518 518 517 517 517 516 516 517 517 517 518 519 520 520 521 522
625 623 621 618 615 614 612 611 610 609 608 605 603 600 596 594 591 588 586 583 581 579 576 574 572 570 568 564 561 560 561 560 558 555 551 547 545 543 544 543 541 538 535 533 531 530 529 527 526 525 525 524 524 524 523 523 522 521 521 520 520 519 519 519 518 518 517 516 516 515 514 514 513 513 513 513 513 513 514 514 515 515 516 517 518 519
623 621 620 617 615 613 611 610 610 608 606 603 601 598 595 591 589 586 584 581 580 578 576 574 572 569 567 563 560 559 559 559 557 553 550 546 543 541 541 540 538 535 532 530 528 527 526 525 524 523 522 522 521 521 521 520 520 519 518 518 517 516 516 515 515 514 513 513 512 511 510 510 509 509 509 509 509 510 510 510 511 512 512 513 514 515
622 620 619 618 616 613 611 609 607 606 604 601 599 596 592 590 587 584 582 580 578 576 575 573 570 568 565 563 560 557 557 557 555 552 548 544 540 538 537 537 535 532 529 527 525 525 524 523 522 521 520 520 519 519 518 518 517 516 515 515 514 513 513 512 511 510 509 509 508 507 506 506 505 505 505 505 505 505 506 506 507 508 509 510 511 512
621 619 617 616 615 613 610 607 605 603 601 599 597 594 590 588 585 583 580 579 577 575 573 571 569 566 564 561 558 556 555 555 554 550 546 541 536 534 534 534 532 530 526 525 523 522 521 520 520 519 518 517 517 516 516 515 514 513 513 512 511 510 509 508 507 506 505 504 504 503 502 502 501 501 501 501 501 501 502 502 503 504 505 506 507 508
620 618 615 614 612 610 607 605 602 599 598 596 594 591 589 587 585 582 579 577 575 573 571 569 567 564 562 559 556 554 553 552 550 548 544 539 535 532 532 533 531 529 525 524 522 521 520 519 517 516 515 515 515 514 513 512 511 510 510 508 507 506 505 504 503 502 501 500 499 499 498 498 498 497 497 497 497 497 498 499 499 500 501 502 503 505
618 615 613 611 609 607 605 602 599 596 595 593 591 589 587 586 583 581 578 575 574 572 570 567 564 561 558 555 553 551 549 549 548 547 544 540 536 533 532 532 531 528 524 522 521 520 518 516 515 513 513 512 512 511 511 510 509 508 506 505 504 502 501 500 499 498 497 496 495 495 495 494 494 494 494 494 494 494 494 495 495 496 497 499 500 501
615 613 610 608 606 604 602 599 596 594 592 590 589 587 585 583 581 578 576 574 572 570 568 565 562 558 555 553 550 548 546 547 546 545 543 540 535 532 531 531 530 527 522 520 519 518 516 514 512 511 510 510 510 509 509 508 506 505 503 501 500 499 497 496 495 494 493 493 492 492 491 491 491 491 491 491 491 491 491 491 492 493 494 495 497 499
613 610 608 605 603 601 598 596 594 592 590 589 587 585 583 580 578 575 573 571 570 569 567 564 560 556 554 551 548 545 544 544 544 543 542 539 535 531 529 529 528 525 521 518 516 515 514 512 510 509 509 508 508 507 506 505 504 502 500 498 497 495 494 492 491 490 490 490 489 489 488 488 488 488 488 488 488 488 488 489 489 490 492 494 496 498
610 607 605 602 600 598 595 593 591 589 588 587 585 584 581 579 576 573 571 570 569 568 566 562 559 555 551 549 545 543 541 541 541 541 540 539 535 531 527 527 526 524 520 516 514 513 512 510 509 508 507 506 506 505 504 503 501 499 497 496 494 492 490 489 488 488 488 487 487 486 486 486 486 486 487 487 487 487 487 487 488 490 492 494 497 499
607 604 602 600 597 595 593 591 589 587 585 584 582 581 579 577 574 571 570 569 569 567 565 561 558 554 550 546 543 540 540 540 540 540 539 538 534 529 526 525 524 522 519 516 513 512 511 509 508 507 506 505 504 503 502 500 499 497 496 494 492 490 489 487 486 486 486 485 485 485 485 485 486 486 486 486 486 486 487 488 489 491 493 495 498 501
604 602 599 597 595 593 591 589 586 585 583 581 580 578 577 575 573 571 569 569 568 566 562 559 556 553 549 545 541 539 538 538 538 538 538 536 532 527 525 524 523 521 520 517 514 510 509 507 506 505 504 503 503 502 500 499 498 496 495 493 491 489 487 486 485 485 485 485 485 485 485 485 486 486 486 486 486 487 487 488 490 492 494 496 499 502
601 599 596 594 592 590 588 586 584 582 580 579 577 575 574 573 572 570 569 568 567 564 560 557 554 551 548 545 541 537 535 535 536 537 536 535 531 527 525 525 523 522 521 519 515 509 505 504 504 503 503 502 502 501 500 499 498 496 495 492 490 488 486 485 484 484 484 485 485 485 485 486 486 487 487 487 487 488 488 489 491 493 495 498 501 503
599 597 594 592 590 588 586 584 582 580 578 575 574 573 572 571 570 569 568 567 565 562 559 556 553 550 548 546 542 537 532 532 534 536 536 535 531 528 526 525 523 522 521 520 515 510 504 501 501 503 502 502 501 501 500 499 498 497 495 492 490 487 485 485 484 484 485 485 485 486 486 487 487 488 488 488 489 489 490 491 492 494 497 500 502 505
597 595 593 590 588 586 584 581 579 577 575 573 571 570 570 569 568 567 565 564 563 560 558 555 552 550 547 545 542 537 533 532 533 535 535 534 530 527 526 525 522 520 519 518 516 512 507 502 502 503 503 502 502 501 500 500 499 497 495 493 490 489 487 486 485 486 486 487 487 488 488 489 489 490 490 490 490 491 492 493 495 496 498 501 504 507
596 593 591 588 586 584 581 579 577 575 572 570 569 568 567 566 565 564 562 561 560 558 556 554 551 548 545 543 540 537 533 532 532 533 534 533 530 526 525 524 522 520 519 517 516 514 511 507 504 503 503 503 502 502 501 500 499 498 496 494 492 490 489 488 488 488 489 490 491 492 492 492 492 492 492 493 493 494 495 496 497 498 500 502 505 509
594 591 589 586 584 581 579 577 574 572 570 568 567 566 565 564 562 560 559 558 556 555 554 552 550 547 544 540 537 534 531 531 531 532 532 531 529 526 524 523 521 520 519 517 516 514 512 509 507 505 503 502 502 501 501 500 499 499 498 495 493 492 491 490 490 490 491 493 494 495 496 496 496 496 496 496 497 498 499 500 500 501 503 504 507 511
592 590 587 585 582 579 577 574 572 570 568 566 565 564 562 560 559 557 556 555 553 552 551 550 548 545 543 540 536 532 529 529 530 530 530 530 528 526 524 522 521 520 520 518 516 514 511 508 506 505 504 502 501 500 500 500 499 499 499 497 495 493 492 492 492 492 493 495 496 497 498 499 500 500 500 500 500 501 502 503 504 505 507 508 510 512
591 588 585 583 580 577 575 572 570 568 566 565 563 561 560 558 556 555 553 551 550 549 548 546 545 543 541 539 536 532 529 528 528 529 529 528 527 525 523 521 520 520 520 517 515 513 510 507 505 504 503 502 501 500 500 500 499 499 499 498 496 494 493 493 493 494 495 496 497 499 500 501 502 503 503 504 504 505 506 507 508 510 512 514 515 517
589 586 583 581 578 576 573 571 569 566 565 563 561 559 557 555 554 552 550 549 547 546 545 543 541 540 538 536 534 531 529 527 526 526 526 525 524 523 521 520 519 519 519 517 514 512 510 507 505 503 502 501 500 500 500 500 499 499 499 499 497 495 495 495 495 495 496 497 499 500 502 503 504 505 506 507 507 508 510 511 513 515 516 518 520 522
587 584 581 579 577 575 572 570 567 565 563 561 559 557 555 553 551 549 548 546 545 543 541 540 538 536 535 533 531 529 527 525 524 523 523 522 521 521 520 518 517 517 516 515 513 511 509 507 504 502 500 499 500 500 500 500 500 500 499 499 498 497 496 497 497 498 498 499 501 502 504 505 506 507 508 509 510 511 513 515 516 518 520 522 524 526
586 583 580 578 576 574 571 568 566 564 561 559 557 555 552 550 548 547 545 544 542 540 538 536 535 533 531 529 528 526 525 523 522 521 520 520 519 518 518 517 515 514 513 513 511 510 508 506 503 501 499 499 499 500 500 500 500 500 500 500 499 499 498 499 499 500 500 501 502 504 505 506 507 508 509 510 511 513 515 517 519 520 522 524 527 529
585 582 579 577 575 572 570 567 565 562 560 557 555 552 550 548 546 544 543 541 540 537 535 534 532 530 528 526 525 524 522 521 520 519 518 517 516 516 516 515 513 512 511 510 509 508 506 504 502 500 499 498 499 499 500 500 500 500 499 500 500 500 500 500 501 501 502 503 503 505 506 507 508 509 510 512 513 514 516 518 520 522 523 525 527 530
584 581 578 575 573 571 569 566 564 561 558 555 553 550 548 546 544 542 540 538 537 535 533 531 529 527 525 524 522 521 520 518 517 516 516 515 515 514 514 513 511 510 509 508 506 505 504 502 500 499 497 497 497 498 499 499 500 499 499 499 500 501 501 501 502 503 503 504 505 505 507 508 509 511 512 514 515 516 517 519 521 523 525 526 527 529
583 580 577 575 572 570 567 564 562 559 557 554 551 549 546 544 542 540 538 536 534 532 531 529 527 525 523 521 520 518 517 516 515 515 514 514 513 512 512 511 510 508 507 505 504 502 501 500 498 497 496 496 496 497 498 499 499 499 499 500 500 501 502 502 503 504 504 505 506 507 508 509 510 512 514 515 517 519 520 521 523 525 526 528 530 531
582 579 576 574 571 568 565 563 560 557 555 552 549 547 545 543 541 539 537 535 532 530 529 528 526 524 522 519 517 516 515 515 514 514 513 512 512 511 510 509 507 506 505 504 501 500 498 497 496 495 494 495 495 496 497 498 499 500 500 500 500 501 503 504 504 505 505 506 507 508 509 510 511 513 515 517 519 521 522 524 525 527 529 530 532 534
581 578 575 573 570 567 564 561 559 556 553 550 547 545 543 541 540 538 536 534 531 530 528 526 525 523 520 518 516 515 514 514 513 513 512 511 510 510 508 507 505 504 503 502 500 498 497 496 495 494 494 494 495 495 496 497 499 500 501 501 500 500 502 504 505 505 506 507 508 509 510 511 513 515 517 519 521 523 525 526 528 530 531 532 534 535
580 577 574 571 568 565 563 560 557 554 551 549 546 543 541 540 538 537 535 532 530 528 527 525 523 521 519 516 515 514 514 513 513 512 511 510 510 508 507 506 504 503 501 500 499 498 497 496 495 495 494 494 495 495 496 497 499 500 501 501 502 502 503 504 505 506 507 508 510 511 512 513 514 516 518 520 523 525 527 529 530 532 534 535 537 538
579 576 573 570 567 565 561 559 556 553 550 547 544 542 540 539 537 535 534 531 529 527 526 524 523 520 518 516 515 514 513 513 512 512 511 510 509 508 506 505 504 502 501 500 498 497 496 496 495 495 495 495 496 496 497 498 499 500 502 502 503 503 504 505 506 507 508 509 511 512 514 514 516 518 520 523 525 527 529 531 533 535 536 538 540 541
578 575 572 569 566 563 560 557 554 551 548 545 543 540 539 537 536 534 532 530 529 527 525 523 522 520 518 516 515 514 514 513 512 511 510 510 509 507 506 505 504 502 501 500 499 498 497 496 496 495 495 496 497 498 499 499 500 501 502 503 504 504 505 507 508 508 509 510 512 514 515 516 518 520 523 525 527 529 531 533 535 537 538 540 542 543
577 574 571 568 565 562 559 556 553 550 547 544 541 539 538 537 535 533 531 530 528 526 525 522 520 519 517 516 515 515 514 513 513 512 511 510 509 507 506 505 504 503 502 501 500 499 498 497 497 496 496 497 497 499 500 501 501 502 503 503 504 505 507 509 510 510 511 512 513 515 516 517 519 522 524 526 529 531 533 535 536 538 540 542 543 545
576 573 570 567 564 561 558 555 551 549 545 543 540 538 537 536 535 533 531 529 527 526 524 522 520 518 517 516 515 515 514 514 513 512 511 510 509 508 506 505 504 503 502 501 500 500 499 498 498 498 499 499 499 500 501 502 503 503 504 505 505 506 508 510 511 512 513 514 515 516 517 519 520 522 524 527 531 534 535 537 538 540 541 543 544 546
575 572 569 566 563 560 557 554 550 547 545 542 540 538 536 535 533 532 530 529 527 525 523 521 520 518 517 516 515 515 515 514 513 512 511 510 509 508 507 505 505 504 503 502 501 500 500 500 500 500 501 501 501 502 502 503 504 505 505 506 507 508 510 511 513 514 514 515 517 518 519 521 523 524 525 528 532 535 537 539 540 541 542 544 545 547
574 571 568 565 562 559 556 553 550 547 544 542 540 538 536 534 532 531 529 528 526 524 522 521 519 518 517 516 516 516 515 515 514 513 512 511 510 508 507 506 505 504 503 502 502 501 501 501 502 503 503 504 504 504 504 505 505 506 507 508 509 510 511 513 514 515 516 517 519 520 521 523 525 526 527 530 533 535 538 540 541 542 543 545 546 548